Tiruchchirapalli, India

7:20 AM IST on January 20, 2017 (GMT +0530)
Tiruchirappalli

Weather History for VOTR - February, 2013

Change the Weather History Date:

Sunday, February 17, 2013

  Actual Average Record
Temperature  
Mean Temperature 87 °F -  
Max Temperature 98 °F 90 °F 98 °F (2013)
Min Temperature 76 °F 75 °F 66 °F (1997)
Cooling Degree Days 22    
Growing Degree Days 37 (Base 50)    
Moisture  
Dew Point 72 °F    
Average Humidity 66    
Maximum Humidity 89    
Minimum Humidity 29    
Precipitation  
Precipitation 0.00 in - - ()
Sea Level Pressure  
Sea Level Pressure 29.79 in    
Wind  
Wind Speed 4 mph ()    
Max Wind Speed 14 mph    
Max Gust Speed -    
Visibility 4.2 miles    
Events      
Averages and records for this station are not official NWS values.
T = Trace of Precipitation, MM = Missing Value Source: Averaged Metar Reports

Daily Weather History Graph

Daily Weather History Graph

Search for Another Location

Airport or City:

Trip Planner

Search our weather history database for the weather conditions in past years. The results will help you decide how hot, cold, wet, or windy it might be!

Date:

Astronomy

Feb. 17, 2013 Rise Set
Actual Time 6:34 AM IST 6:23 PM IST
Civil Twilight 6:13 AM IST 6:44 PM IST
Nautical Twilight 5:48 AM IST 7:09 PM IST
Astronomical Twilight 5:23 AM IST 7:34 PM IST
Moon 11:30 AM IST (2/17) 12:23 AM IST (2/18)
Length of Visible Light 12h 31m
Length of Day
11h 48m
Waxing Crescent, 44% of the Moon is Illuminated
Feb 17
Waxing Crescent
Feb 18
First Quarter
Feb 26
Full
Mar 5
Last Quarter
Mar 12
New

Hourly Weather History & Observations

Time (IST) Temp. Heat Index Dew Point Humidity Pressure Visibility Wind Dir Wind Speed Gust Speed Precip Events Conditions
12:10 AM 80.6 °F 85.4 °F 73.4 °F 79% 29.86 in 3.7 mi SSW 3.5 mph - N/A   Scattered Clouds
12:40 AM 80.6 °F 85.4 °F 73.4 °F 79% 29.83 in 3.7 mi South 3.5 mph - N/A   Scattered Clouds
1:10 AM 78.8 °F - 73.4 °F 83% 29.83 in 3.7 mi South 2.3 mph - N/A   Scattered Clouds
1:40 AM 78.8 °F - 73.4 °F 83% 29.80 in 3.7 mi South 4.6 mph - N/A   Scattered Clouds
2:10 AM 78.8 °F - 73.4 °F 83% 29.80 in 3.1 mi West 3.5 mph - N/A   Scattered Clouds
2:30 AM 78 °F - 72 °F 77% 29.80 in 1 mi South 2.3 mph - -   Haze
2:40 AM 78.8 °F - 71.6 °F 78% 29.80 in 3.1 mi SSW 2.3 mph - N/A   Scattered Clouds
3:10 AM 78.8 °F - 71.6 °F 78% 29.77 in 3.1 mi SSE 2.3 mph - N/A   Scattered Clouds
3:40 AM 77.0 °F - 73.4 °F 89% 29.77 in 3.1 mi SSW 3.5 mph - N/A   Haze
4:10 AM 77.0 °F - 73.4 °F 89% 29.77 in 3.1 mi SW 3.5 mph - N/A   Haze
4:40 AM 77.0 °F - 73.4 °F 89% 29.77 in 3.1 mi SW 2.3 mph - N/A   Haze
5:10 AM 77.0 °F - 73.4 °F 89% 29.77 in 3.1 mi South 3.5 mph - N/A   Haze
5:30 AM 78 °F - 73 °F 81% 29.78 in 2 mi South 2.3 mph - -   Haze
5:40 AM 77.0 °F - 73.4 °F 89% 29.80 in 3.1 mi SSW 2.3 mph - N/A   Haze
6:10 AM 77.0 °F - 73.4 °F 89% 29.80 in 2.5 mi South 2.3 mph - N/A   Haze
7:10 AM 78.8 °F - 73.4 °F 83% 29.83 in 1.9 mi South 2.3 mph - N/A   Haze
7:40 AM 80.6 °F 85.4 °F 73.4 °F 79% 29.83 in 2.5 mi SSW 2.3 mph - N/A   Haze
8:10 AM 82.4 °F 88.2 °F 73.4 °F 74% 29.83 in 2.5 mi South 4.6 mph - N/A   Haze
8:30 AM 82 °F - 73 °F 67% 29.84 in 2 mi South 4.6 mph - -   Haze
9:10 AM 84.2 °F 90.9 °F 73.4 °F 70% 29.86 in 3.7 mi WSW 3.5 mph - N/A   Partly Cloudy
9:40 AM 86.0 °F 93.4 °F 73.4 °F 66% 29.86 in 5.0 mi West 3.5 mph - N/A   Partly Cloudy
10:10 AM 87.8 °F 93.8 °F 71.6 °F 58% 29.86 in 5.0 mi West 3.5 mph - N/A   Partly Cloudy
10:40 AM 87.8 °F 93.8 °F 71.6 °F 58% 29.86 in 5.0 mi West 4.6 mph - N/A   Partly Cloudy
11:10 AM 89.6 °F 96.2 °F 71.6 °F 55% 29.86 in 6.2 mi West 3.5 mph - N/A   Partly Cloudy
11:30 AM 91 °F - 69 °F 40% 29.83 in 6 mi West 3.5 mph - -   Partly Cloudy
11:40 AM 91.4 °F 98.4 °F 71.6 °F 52% 29.83 in 6.2 mi West 4.6 mph - N/A   Scattered Clouds
12:10 PM 91.4 °F 98.4 °F 71.6 °F 52% 29.83 in 6.2 mi Variable 3.5 mph - N/A   Scattered Clouds
12:40 PM 91.4 °F 98.4 °F 71.6 °F 52% 29.80 in 6.2 mi Variable 2.3 mph - N/A   Scattered Clouds
1:10 PM 93.2 °F 100.5 °F 71.6 °F 49% 29.77 in 6.2 mi Variable 3.5 mph - N/A   Scattered Clouds
1:40 PM 93.2 °F 100.5 °F 71.6 °F 49% 29.77 in 6.2 mi Variable 3.5 mph - N/A   Partly Cloudy
2:10 PM 95.0 °F 101.3 °F 69.8 °F 44% 29.74 in 6.2 mi SE 3.5 mph - N/A   Partly Cloudy
2:30 PM 98 °F - 69 °F 29% 29.72 in 6 mi SW 4.6 mph - -   Mostly Cloudy
2:40 PM 96.8 °F 103.1 °F 69.8 °F 41% 29.74 in 6.2 mi Variable 3.5 mph - N/A   Partly Cloudy
3:10 PM 96.8 °F 103.1 °F 69.8 °F 41% 29.71 in 6.2 mi Variable 2.3 mph - N/A   Partly Cloudy
3:40 PM 96.8 °F 103.1 °F 69.8 °F 41% 29.71 in 6.2 mi Variable 3.5 mph - N/A   Partly Cloudy
4:10 PM 96.8 °F 103.1 °F 69.8 °F 41% 29.71 in 6.2 mi SSE 5.8 mph - N/A   Partly Cloudy
4:40 PM 95.0 °F 101.3 °F 69.8 °F 44% 29.68 in 6.2 mi South 4.6 mph - N/A   Partly Cloudy
5:10 PM 95.0 °F 101.3 °F 69.8 °F 44% 29.68 in 6.2 mi SSE 6.9 mph - N/A   Partly Cloudy
5:30 PM 96 °F - 69 °F 32% 29.69 in 6 mi East 9.2 mph - -   Partly Cloudy
5:40 PM 95.0 °F 101.3 °F 69.8 °F 44% 29.71 in 6.2 mi East 10.4 mph - N/A   Partly Cloudy
6:10 PM 89.6 °F 96.2 °F 71.6 °F 55% 29.71 in 5.0 mi SE 12.7 mph - N/A   Partly Cloudy
6:40 PM 87.8 °F 95.6 °F 73.4 °F 62% 29.74 in 5.0 mi SSE 13.8 mph - N/A   Partly Cloudy
7:10 PM 86.0 °F 93.4 °F 73.4 °F 66% 29.74 in 3.7 mi SSE 12.7 mph - N/A   Partly Cloudy
7:40 PM 86.0 °F 93.4 °F 73.4 °F 66% 29.77 in 3.7 mi SSE 11.5 mph - N/A   Partly Cloudy
8:10 PM 84.2 °F 92.3 °F 75.2 °F 74% 29.77 in 3.7 mi South 9.2 mph - N/A   Partly Cloudy
8:30 PM 84 °F - 74 °F 65% 29.78 in 2 mi South 9.2 mph - -   Haze
8:40 PM 84.2 °F 92.3 °F 75.2 °F 74% 29.77 in 3.7 mi South 9.2 mph - N/A   Partly Cloudy
9:10 PM 84.2 °F 92.3 °F 75.2 °F 74% 29.80 in 3.7 mi South 5.8 mph - N/A   Scattered Clouds
9:40 PM 84.2 °F 92.3 °F 75.2 °F 74% 29.83 in 3.7 mi South 5.8 mph - N/A   Partly Cloudy
10:10 PM 82.4 °F 89.5 °F 75.2 °F 79% 29.83 in 3.7 mi South 6.9 mph - N/A   Partly Cloudy
10:40 PM 82.4 °F 89.5 °F 75.2 °F 79% 29.83 in 3.7 mi South 5.8 mph - N/A   Partly Cloudy
11:10 PM 82.4 °F 89.5 °F 75.2 °F 79% 29.83 in 3.7 mi South 4.6 mph - N/A   Partly Cloudy
11:30 PM 81 °F - 73 °F 70% 29.83 in 2 mi South 4.6 mph - -   Partly Cloudy
11:40 PM 80.6 °F 85.4 °F 73.4 °F 79% 29.83 in 3.7 mi South 4.6 mph - N/A   Partly Cloudy